#timestamp,LO_Frequency,Hit,StdDev 
1574690415.5,286046989.0,N
1574690435.3,286046978.4,N
1574690455.2,286046967.9,N
1574690475.0,286046967.6,N
1574690475.9,286046967.6,N
1574690495.7,286046960.3,N
1574690515.6,286046955.9,N
1574690535.4,286046959.1,N
1574690555.3,286046976.5,N
1574690575.2,286046984.1,N
1574690595.9,286046986.6,N
1574690615.7,286046987.6,N
1574690635.6,286047002.7,N
1574690655.4,286047002.1,N
1574690675.2,286047006.2,N
1574690695.1,286047011.9,N
1574690696.0,286047011.9,N
1574690715.8,286047011.0,N
1574690735.7,286047003.9,N
1574690755.5,286046991.0,N
1574690775.3,286046981.3,N
1574690795.2,286046984.0,N
1574690815.0,286046988.8,N
1574690815.9,286046988.8,N
1574690835.7,286047000.9,N
1574690855.6,286047001.9,N
1574690875.4,286046995.0,N
1574690895.3,286046985.4,N
1574690915.1,286046980.2,N
1574690916.0,286046980.2,N
1574690935.8,286046970.3,N
1574690955.7,286046967.5,N
1574690975.5,286046964.7,N
1574690995.3,286046967.4,N
1574691015.2,286046964.6,N
1574691035.0,286046960.9,N
1574691035.9,286046960.9,N
1574691055.8,286046955.0,N
1574691075.6,286046954.4,N
1574691095.4,286046952.3,N
1574691115.3,286046947.6,N
1574691135.1,286046946.7,N
1574691155.8,286046946.9,N
1574691175.7,286046955.1,N
1574691195.5,286046958.9,N
1574691215.4,286046962.4,N
1574691235.2,286046963.2,N
1574691255.0,286046962.7,N
1574691255.9,286046962.7,N
1574691275.8,286046964.7,N
1574691295.6,286046965.4,N
1574691315.4,286046969.3,N
1574691335.3,286046973.1,N
1574691355.1,286046973.5,N
1574691375.9,286046970.5,N
1574691395.7,286046965.8,N
1574691415.5,286046967.2,Y
1574691435.4,286046999.4,P
1574691455.2,286046999.0,N
1574691475.0,286046998.1,N
1574691475.9,286046998.1,N
1574691495.8,286046999.6,N
1574691515.6,286047002.3,N
1574691535.5,286047002.8,N
1574691555.3,286046997.6,N
1574691575.1,286047003.2,N
1574691595.9,286047009.0,N
1574691615.7,286047005.3,N
1574691635.6,286046996.5,N
1574691655.4,286046993.2,N
1574691675.2,286046986.4,N
1574691695.1,286046981.3,N
1574691696.0,286046981.3,N
1574691715.8,286046979.3,N
1574691735.6,286046980.6,N
1574691755.5,286046990.1,N
1574691775.3,286046994.1,N
1574691795.2,286046994.7,N
1574691815.0,286046987.0,N
1574691815.9,286046987.0,N
1574691835.8,286046984.0,N
1574691855.6,286046986.5,N
1574691875.5,286046990.4,N
1574691895.3,286046988.9,N
1574691915.1,286046990.5,N
1574691935.9,286046989.6,N
1574691955.7,286046984.3,N
1574691975.5,286046981.8,N
1574691995.4,286046977.5,N
1574692015.2,286046979.5,N
1574692035.1,286046986.0,N
1574692036.0,286046986.0,N
1574692055.8,286046997.2,N
1574692075.6,286047011.1,N
1574692095.5,286047010.1,N
1574692115.3,286047002.7,N
1574692135.1,286047000.1,N
1574692155.9,286047007.2,N
1574692175.7,286047006.6,N
1574692195.6,286047001.2,N
1574692215.4,286046993.2,N
1574692235.2,286046987.3,N
1574692255.1,286046996.3,N
1574692256.0,286046996.3,N
1574692275.8,286047005.0,N
1574692295.6,286047000.9,N
1574692315.5,286046988.6,N
1574692335.3,286046987.6,N
1574692355.2,286046984.3,N
1574692375.9,286046991.5,N
1574692395.7,286047000.2,N
1574692415.6,286047007.1,N
1574692435.4,286047004.9,N
1574692455.2,286047007.3,N
1574692475.1,286047003.3,N
1574692476.0,286047003.3,N
1574692495.8,286047005.0,N
1574692515.7,286047001.5,N
1574692535.5,286046994.2,N
1574692555.3,286046990.9,N
1574692575.2,286046988.2,N
1574692595.0,286046989.9,N
1574692595.9,286046989.9,N
1574692615.8,286046987.5,N
1574692635.6,286046989.3,N
1574692655.4,286046987.1,N
1574692675.3,286046989.3,N
1574692695.1,286046992.7,N
1574692715.8,286046995.1,N
1574692735.7,286047000.1,N
1574692755.5,286047010.7,N
1574692775.3,286047007.5,N
1574692795.2,286047007.9,N
1574692815.0,286047022.0,N
1574692815.9,286047022.0,N
1574692835.8,286047020.8,N
1574692855.6,286047022.1,N
1574692875.4,286047023.3,N
1574692895.3,286047014.0,N
1574692915.1,286047019.7,N
1574692935.9,286047022.8,N
1574692955.7,286047023.1,N
1574692975.5,286047021.4,N
1574692995.4,286047015.1,N
1574693015.2,286047006.6,N
1574693035.0,286047018.3,N
1574693035.9,286047018.3,N
1574693055.8,286047016.6,N
1574693075.6,286047013.9,N
1574693095.5,286047006.9,N
1574693115.3,286046998.3,N
1574693135.1,286047008.0,N
1574693155.9,286047014.6,N
1574693175.7,286047014.6,N
1574693195.5,286047014.2,N
1574693215.4,286047011.5,N
1574693235.2,286047002.9,N
1574693255.1,286047002.5,N
1574693256.0,286047002.5,N
1574693275.8,286047010.3,N
1574693295.6,286047011.6,N
1574693315.5,286047011.5,N
1574693335.3,286047017.5,N
1574693355.2,286047029.5,Y
1574693375.9,286047012.2,P
1574693395.7,286047008.9,P
1574693415.6,286046998.4,N
1574693435.4,286046995.6,N
1574693455.2,286046989.0,N
1574693475.1,286046981.7,N
1574693476.0,286046981.7,N
1574693495.8,286046974.8,N
1574693515.7,286046972.4,N
1574693535.5,286046964.6,N
1574693555.3,286046969.2,N
1574693575.2,286046969.6,N
1574693595.0,286046975.6,N
1574693595.9,286046975.6,N
1574693615.7,286046973.2,N
1574693635.6,286046977.2,N
1574693655.4,286046979.5,N
1574693675.3,286046974.9,N
1574693695.1,286046977.2,N
1574693696.0,286046977.2,N
1574693715.8,286046971.5,N
1574693735.7,286046965.0,N
1574693755.5,286046968.3,N
1574693775.4,286046980.2,N
1574693795.2,286046983.9,N
1574693815.0,286046984.7,N
1574693815.9,286046984.7,N
1574693835.8,286046979.1,N
1574693855.6,286046974.9,N
1574693875.4,286046973.2,N
1574693895.3,286046976.3,N
1574693915.1,286046976.9,N
1574693935.9,286046969.8,Y
1574693955.7,286046992.8,P
1574693975.5,286046990.2,N
1574693995.4,286046992.4,N
